[Date Prev][Date Next][Thread Prev][Thread Next] - [Date Index][Thread Index][Author Index]

2 Line ISS Keps 10-3



ISS 
1 25544U 98067A   04277.26284722  .00014772  00000-0  13174-3 0  8273
2 25544  51.6353 134.2001 0009698 178.9803 336.3102 15.68649243335292
----
Via the sarex mailing list at AMSAT.ORG courtesy of AMSAT-NA.
To unsubscribe, send "unsubscribe sarex" to Majordomo@amsat.org



AMSAT Top AMSAT Home